This demonstration page uses our WeatherBlox Daily Observations layout. Learn more.

40.92945, -100.16068

Hourly Observations for January 5, 2020

Temp ( °F °C ) Dew Point ( °F °C ) Humidity (%) Winds ( mph kmh ) Pressure ( in mb ) Visibility ( mi km ) Precip ( " mm )
12:15 am 00:15 Clear 34 1 28 -2 81 81 W 6 9 30.04 1017 10 16.0934 0 0
12:35 am 00:35 Clear 32 0 28 -2.2 85 85 WNW 9 15 30.06 1018 10 16.0934 0 0
12:55 am 00:55 Clear 36 2.3 29 -1.8 75 75 NW 10 17 30.04 1017 10 16.0934 0 0
1:15 am 01:15 Clear 40 4.2 30 -1.1 69 69 WNW 15 24 30.03 1017 10 16.0934 0 0
1:35 am 01:35 Clear 40 4.4 30 -1.1 68 68 WNW 18 30 30.03 1017 10 16.0934 0 0
1:55 am 01:55 Clear 41 5.2 30 -1.2 64 64 WNW 22 35 30.04 1017 10 16.0934 0 0
2:15 am 02:15 Clear 42 5.3 30 -1.3 63 63 NW 22 35 30.07 1018 10 16.0934 0 0
2:35 am 02:35 Clear 41 5.1 30 -1.3 64 64 WNW 20 31 30.08 1019 10 16.0934 0 0
2:55 am 02:55 Clear 42 5.4 30 -1.3 62 62 NW 22 35 30.1 1019 10 16.0934 0 0
3:15 am 03:15 Clear 41 5.2 30 -1.1 64 64 NW 22 35 30.12 1020 10 16.0934 0 0
3:35 am 03:35 Clear 40 4.7 30 -1 67 67 NW 17 28 30.14 1021 10 16.0934 0 0
3:55 am 03:55 Clear 39 4.1 31 -0.7 71 71 NW 15 24 30.17 1022 10 16.0934 0 0
4:15 am 04:15 Clear 38 3.3 31 -0.7 75 75 NW 13 20 30.18 1022 10 16.0934 0 0
4:35 am 04:35 Clear 37 2.6 31 -0.8 79 79 WNW 12 19 30.2 1023 10 16.0934 0 0
4:55 am 04:55 Clear 35 1.8 30 -1 82 82 WNW 12 19 30.22 1023 10 16.0934 0 0
5:15 am 05:15 Clear 35 1.6 30 -1.2 82 82 WNW 13 20 30.24 1024 10 16.0934 0 0
5:35 am 05:35 Clear 36 2.4 29 -1.5 76 76 NW 14 22 30.25 1025 10 16.0934 0 0
5:55 am 05:55 Clear 37 2.6 28 -2 72 72 NW 15 24 30.26 1025 10 16.0934 0 0
6:15 am 06:15 Clear 37 2.6 28 -2.5 69 69 NW 15 24 30.27 1025 10 16.0934 0 0
6:35 am 06:35 Clear 37 2.6 26 -3.2 66 66 NNW 17 28 30.28 1025 10 16.0934 0 0
6:55 am 06:55 Clear 36 2.4 25 -4 63 63 NNW 14 22 30.3 1026 10 16.0934 0 0
7:15 am 07:15 Clear 36 2.1 24 -4.5 62 62 NNW 14 22 30.32 1027 10 16.0934 0 0
7:35 am 07:35 Clear 35 1.5 23 -4.8 63 63 NW 13 20 30.32 1027 10 16.0934 0 0
7:55 am 07:55 Clear 33 0.5 24 -4.6 69 69 NW 15 24 30.34 1028 10 16.0934 0 0
8:15 am 08:15 Sunny 33 0.4 23 -4.8 68 68 WNW 9 15 30.35 1028 10 16.0934 0 0
8:35 am 08:35 Sunny 33 0.5 24 -4.7 68 68 NW 12 19 30.36 1028 10 16.0934 0 0
8:55 am 08:55 Sunny 33 0.5 24 -4.4 70 70 WNW 9 15 30.37 1029 10 16.0934 0 0
9:15 am 09:15 Sunny 33 0.3 25 -3.9 74 74 W 9 15 30.4 1030 10 16.0934 0 0
9:35 am 09:35 Sunny 34 1 24 -4.2 69 69 WNW 9 15 30.41 1030 10 16.0934 0 0
9:55 am 09:55 Sunny 35 1.6 24 -4.2 66 66 WNW 10 17 30.4 1030 10 16.0934 0 0
10:15 am 10:15 Sunny 36 2.2 25 -4 64 64 WNW 12 19 30.42 1030 10 16.0934 0 0
10:35 am 10:35 Sunny 37 2.5 26 -3.4 65 65 WNW 12 19 30.41 1030 10 16.0934 0 0
10:55 am 10:55 Sunny 37 2.8 26 -3.5 64 64 NW 12 19 30.41 1030 10 16.0934 0 0
11:15 am 11:15 Sunny 37 2.8 25 -3.7 63 63 NW 12 19 30.41 1030 10 16.0934 0 0
11:35 am 11:35 Sunny 37 3 26 -3.2 64 64 NW 12 19 30.41 1030 10 16.0934 0 0
11:55 am 11:55 Sunny 38 3.4 26 -3.1 63 63 NW 12 19 30.39 1029 10 16.0934 0 0
12:15 pm 12:15 Sunny 39 4.1 24 -4.5 54 54 NNW 16 26 30.4 1029 10 16.0934 0 0
12:35 pm 12:35 Sunny 39 4.1 24 -4.5 54 54 NNW 16 26 30.4 1029 10 16.0934 0 0
12:55 pm 12:55 Sunny 40 4.3 24 -4.5 53 53 NNW 15 24 30.38 1029 10 16.0934 0 0
1:15 pm 13:15 Sunny 40 4.5 24 -4.2 54 54 N 10 17 30.35 1028 10 16.0934 0 0
1:35 pm 13:35 Sunny 40 4.3 25 -3.9 56 56 NW 9 15 30.35 1028 10 16.0934 0 0
1:55 pm 13:55 Sunny 40 4.7 25 -4 54 54 NW 9 15 30.34 1027 10 16.0934 0 0
2:15 pm 14:15 Sunny 40 4.7 24 -4.4 52 52 NW 7 11 30.33 1027 10 16.0934 0 0
2:30 pm 14:30 Sunny 41 4.8 23 -4.9 50 50 NW 6 9 30.33 1027 10 16.0934 0 0
2:55 pm 14:55 Sunny 40 4.7 24 -4.3 52 52 WNW 6 9 30.34 1027 10 16.0934 0 0
3:15 pm 15:15 Sunny 40 4.7 25 -4 54 54 NW 6 9 30.33 1027 10 16.0934 0 0
3:35 pm 15:35 Sunny 40 4.5 25 -4 54 54 WNW 5 7 30.32 1027 10 16.0934 0 0
3:55 pm 15:55 Sunny 40 4.3 26 -3.4 58 58 WNW 3 6 30.33 1027 10 16.0934 0 0
4:15 pm 16:15 Sunny 39 3.8 27 -3 62 62 WNW 5 7 30.32 1027 10 16.0934 0 0
4:35 pm 16:35 Sunny 36 2.3 26 -3.2 67 67 WSW 3 6 30.33 1027 10 16.0934 0 0
4:55 pm 16:55 Sunny 35 1.6 26 -3.6 69 69 WSW 6 9 30.35 1028 10 16.0934 0 0
5:15 pm 17:15 Sunny 34 0.9 26 -3.2 74 74 WSW 5 7 30.36 1028 10 16.0934 0 0
5:35 pm 17:35 Clear 34 1.2 25 -4 69 69 SW 5 7 30.35 1028 10 16.0934 0 0
5:55 pm 17:55 Clear 33 0.4 25 -3.8 74 74 Calm 30.34 1028 10 16.0934 0 0
6:15 pm 18:15 Clear 33 0.3 25 -3.9 74 74 Calm 30.34 1028 10 16.0934 0 0
6:35 pm 18:35 Clear 32 0.2 24 -4.4 72 72 Calm 30.36 1028 10 16.0934 0 0
6:55 pm 18:55 Clear 31 -0.6 25 -3.8 79 79 SW 5 7 30.35 1028 10 16.0934 0 0
7:15 pm 19:15 Clear 29 -1.4 25 -4 83 83 WSW 3 6 30.36 1028 10 16.0934 0 0
7:35 pm 19:35 Clear 29 -1.9 25 -4.1 85 85 WSW 3 6 30.38 1029 10 16.0934 0 0
7:55 pm 19:55 Clear 28 -2.4 26 -3.1 95 95 Calm 30.37 1029 10 16.0934 0 0
8:15 pm 20:15 Clear 27 -2.6 25 -4 90 90 Calm 30.36 1028 10 16.0934 0 0
8:35 pm 20:35 Clear 26 -3.2 24 -4.4 92 92 Calm 30.37 1028 10 16.0934 0 0
8:55 pm 20:55 Clear 26 -3.4 24 -4.3 94 94 Calm 30.37 1029 10 16.0934 0 0
9:15 pm 21:15 Clear 26 -3.3 24 -4.6 91 91 Calm 30.37 1028 10 16.0934 0 0
9:35 pm 21:35 Clear 25 -4 23 -4.8 94 94 E 5 7 30.37 1028 10 16.0934 0 0
9:55 pm 21:55 Clear 25 -3.9 23 -5.1 91 91 E 6 9 30.36 1028 10 16.0934 0 0
10:15 pm 22:15 Clear 26 -3.5 23 -5.1 89 89 E 5 7 30.35 1028 10 16.0934 0 0
10:35 pm 22:35 Clear 26 -3.2 23 -5 88 88 Calm 30.35 1028 10 16.0934 0 0
10:55 pm 22:55 Clear 25 -3.7 23 -5 91 91 Calm 30.36 1028 10 16.0934 0 0
11:15 pm 23:15 Partly Cloudy 26 -3.5 24 -4.7 92 92 Calm 30.35 1028 10 16.0934 0 0
11:35 pm 23:35 Mostly Cloudy 27 -3 24 -4.2 92 92 Calm 30.35 1028 10 16.0934 0 0
11:55 pm 23:55 Partly Cloudy 27 -2.8 25 -4 92 92 Calm 30.34 1027 10 16.0934 0 0

Powered by AerisWeather